Weather History for FMMI - October, 2012

Change the Weather History Date:

Thursday, October 4, 2012

  Actual Average Record
Temperature  
Mean Temperature 62 °F -  
Max Temperature 71 °F 78 °F 88 °F (2014)
Min Temperature 53 °F 56 °F 46 °F (2003)
Degree Days  
Heating Degree Days 3    
Growing Degree Days 12 (Base 50)    
Moisture  
Dew Point 54 °F    
Average Humidity 79    
Maximum Humidity 100    
Minimum Humidity 36    
Precipitation  
Precipitation 0.00 in 0.12 in - ()
Sea Level Pressure  
Sea Level Pressure 30.26 in    
Wind  
Wind Speed 8 mph ()    
Max Wind Speed 16 mph    
Max Gust Speed -    
Visibility 6.4 miles    
Events      
Averages and records for this station are not official NWS values.
T = Trace of Precipitation, MM = Missing Value Source: Averaged Metar Reports

Daily Weather History Graph

Daily Weather History Graph

Search for Another Location

Airport or City:

Trip Planner

Search our weather history database for the weather conditions in past years. The results will help you decide how hot, cold, wet, or windy it might be!

Date:

Astronomy

Oct. 04, 2012 Rise Set
Actual Time 5:29 AM EAT 5:48 PM EAT
Civil Twilight 5:07 AM EAT 6:10 PM EAT
Nautical Twilight 4:41 AM EAT 6:36 PM EAT
Astronomical Twilight 4:15 AM EAT 7:01 PM EAT
Moon 9:29 PM EAT (10/4) 8:06 AM EAT (10/4)
Length of Visible Light 13h 03m
Length of Day
12h 19m
Waning Gibbous, 84% of the Moon is Illuminated
Oct 4
Waning Gibbous
Oct 8
Last Quarter
Oct 15
New
Oct 22
First Quarter
Oct 29
Full

Hourly Weather History & Observations

Time (EAT) Temp. Dew Point Humidity Pressure Visibility Wind Dir Wind Speed Gust Speed Precip Events Conditions
12:00 AM 55.4 °F 55.4 °F 100% 30.30 in 6.2 mi ESE 5.8 mph - N/A   Partly Cloudy
12:30 AM 55.4 °F 55.4 °F 100% 30.30 in 6.2 mi ESE 8.1 mph - N/A   Partly Cloudy
1:00 AM 53.6 °F 53.6 °F 100% 30.30 in 6.2 mi ESE 8.1 mph - N/A   Partly Cloudy
1:30 AM 53.6 °F 53.6 °F 100% 30.27 in 6.2 mi ESE 8.1 mph - N/A   Partly Cloudy
2:00 AM 53.6 °F 53.6 °F 100% 30.27 in 6.2 mi ESE 9.2 mph - N/A   Partly Cloudy
2:30 AM 53.6 °F 53.6 °F 100% 30.27 in 6.2 mi SE 6.9 mph - N/A   Partly Cloudy
3:00 AM 56 °F 51 °F 80%  in 12 mi East 4.6 mph - -   Scattered Clouds
3:00 AM 53.6 °F 53.6 °F 100% 30.27 in 6.2 mi SSE 6.9 mph - N/A   Partly Cloudy
3:30 AM 53.6 °F 53.6 °F 100% 30.27 in 6.2 mi SSE 5.8 mph - N/A   Scattered Clouds
4:00 AM 53.6 °F 53.6 °F 100% 30.27 in 6.2 mi SSE 6.9 mph - N/A   Mostly Cloudy
4:30 AM 53.6 °F 53.6 °F 100% 30.27 in 6.2 mi SE 5.8 mph - N/A   Mostly Cloudy
5:00 AM 53.6 °F 53.6 °F 100% 30.27 in 6.2 mi SE 6.9 mph - N/A   Scattered Clouds
5:30 AM 53.6 °F 53.6 °F 100% 30.27 in 6.2 mi SE 6.9 mph - N/A   Scattered Clouds
6:00 AM 55.4 °F 53.6 °F 94% 30.27 in 6.2 mi SE 6.9 mph - N/A   Partly Cloudy
6:30 AM 57.2 °F 53.6 °F 88% 30.27 in 6.2 mi SE 9.2 mph - N/A   Partly Cloudy
7:00 AM 57.2 °F 53.6 °F 88% 30.27 in 6.2 mi SE 9.2 mph - N/A   Scattered Clouds
7:30 AM 59.0 °F 53.6 °F 82% 30.30 in 6.2 mi SE 11.5 mph - N/A   Scattered Clouds
8:00 AM 62.6 °F 53.6 °F 72% 30.30 in 6.2 mi SE 10.4 mph - N/A   Scattered Clouds
8:30 AM 64.4 °F 53.6 °F 68% 30.30 in 6.2 mi SE 9.2 mph - N/A   Partly Cloudy
9:00 AM 64 °F 45 °F 39%  in 22 mi East 9.2 mph - -   Partly Cloudy
9:00 AM 66.2 °F 53.6 °F 64% 30.30 in 6.2 mi ESE 10.4 mph - N/A   Scattered Clouds
9:30 AM 66.2 °F 53.6 °F 64% 30.30 in 6.2 mi ESE 13.8 mph - N/A   Mostly Cloudy
10:00 AM 68.0 °F 55.4 °F 64% 30.27 in 6.2 mi ESE 13.8 mph - N/A   Mostly Cloudy
10:30 AM 68.0 °F 55.4 °F 64% 30.27 in 6.2 mi SE 12.7 mph - N/A   Mostly Cloudy
11:00 AM 68.0 °F 55.4 °F 64% 30.27 in 6.2 mi SE 12.7 mph - N/A   Mostly Cloudy
11:30 AM 71.6 °F 55.4 °F 57% 30.27 in 6.2 mi ESE 12.7 mph - N/A   Mostly Cloudy
12:00 PM 69.8 °F 53.6 °F 56% 30.24 in 6.2 mi ESE 16.1 mph - N/A   Mostly Cloudy
12:30 PM 73.4 °F 55.4 °F 53% 30.24 in 6.2 mi ESE 12.7 mph - N/A   Mostly Cloudy
1:00 PM 73.4 °F 59.0 °F 61% 30.24 in 6.2 mi ESE 15.0 mph - N/A   Mostly Cloudy
1:30 PM 71.6 °F 57.2 °F 60% 30.24 in 6.2 mi SE 12.7 mph - N/A   Scattered Clouds
2:00 PM 71.6 °F 55.4 °F 57% 30.21 in 6.2 mi ESE 12.7 mph - N/A   Scattered Clouds
2:30 PM 69.8 °F 53.6 °F 56% 30.21 in 6.2 mi ESE 15.0 mph - N/A   Scattered Clouds
3:00 PM 70 °F 49 °F 36%  in 25 mi ESE 16.1 mph - -   Partly Cloudy
3:00 PM 71.6 °F 55.4 °F 57% 30.21 in 6.2 mi SE 12.7 mph - N/A   Scattered Clouds
3:30 PM 71.6 °F 55.4 °F 57% 30.21 in 6.2 mi East 10.4 mph - N/A   Scattered Clouds
4:00 PM 69.8 °F 57.2 °F 64% 30.21 in 6.2 mi ESE 16.1 mph - N/A   Scattered Clouds
4:30 PM 68.0 °F 53.6 °F 60% 30.21 in 6.2 mi ESE 10.4 mph - N/A   Scattered Clouds
5:00 PM 68.0 °F 53.6 °F 60% 30.21 in 6.2 mi East 15.0 mph - N/A   Partly Cloudy
5:30 PM 64.4 °F 53.6 °F 68% 30.21 in 6.2 mi East 15.0 mph - N/A   Partly Cloudy
6:00 PM 62.6 °F 51.8 °F 68% 30.24 in 6.2 mi East 10.4 mph - N/A   Partly Cloudy
6:30 PM 60.8 °F 53.6 °F 77% 30.24 in 6.2 mi East 10.4 mph - N/A   Partly Cloudy
7:00 PM 59.0 °F 53.6 °F 82% 30.27 in 6.2 mi East 8.1 mph - N/A   Partly Cloudy
7:30 PM 59.0 °F 53.6 °F 82% 30.27 in 6.2 mi East 6.9 mph - N/A   Partly Cloudy
8:00 PM 57.2 °F 53.6 °F 88% 30.27 in 6.2 mi East 8.1 mph - N/A   Partly Cloudy
8:30 PM 57.2 °F 55.4 °F 94% 30.27 in 6.2 mi East 9.2 mph - N/A   Partly Cloudy
9:00 PM 57 °F 53 °F 82%  in 12 mi East 2.3 mph - -   Scattered Clouds
9:00 PM 57.2 °F 55.4 °F 94% 30.30 in 6.2 mi East 10.4 mph - N/A   Partly Cloudy
9:30 PM 57.2 °F 57.2 °F 100% 30.30 in 6.2 mi ESE 8.1 mph - N/A   Partly Cloudy
10:00 PM 55.4 °F 55.4 °F 100% 30.30 in 6.2 mi ESE 8.1 mph - N/A   Partly Cloudy
10:30 PM 55.4 °F 55.4 °F 100% 30.27 in 6.2 mi Variable 3.5 mph - N/A   Partly Cloudy
11:00 PM 55.4 °F 55.4 °F 100% 30.27 in 6.2 mi ESE 5.8 mph - N/A   Partly Cloudy
11:30 PM 55.4 °F 55.4 °F 100% 30.27 in 6.2 mi Variable 3.5 mph - N/A   Partly Cloudy